Probability
0 0 1 1 1 0 0 1 2 2 2 2 2 1 1 4 6 5 4 5 5 5 6 4 2 3 4 4 4 4 4 4 3 3 4 6 7 8 8 8 9 10 10 10
0 0 0 0 0 0 0 1 1 1 1 1 1 1 1 3 5 4 3 3 3 3 4 3 2 2 3 4 4 4 4 4 3 3 4 6 7 9 9 9 10 10 10 10
0 0 0 0 0 0 0 0 0 0 0 1 2 2 3 3 4 3 1 1 1 2 3 3 2 1 2 4 5 5 4 3 3 3 4 6 7 9 10 11 11 10 9 9
0 0 0 0 0 0 0 1 1 1 1 2 3 3 2 3 3 3 3 2 2 3 3 3 2 1 1 3 4 4 4 3 3 3 4 6 7 8 10 10 11 10 9 8
0 0 0 0 0 0 0 2 2 2 2 2 2 2 2 2 4 5 6 6 4 3 2 1 1 0 1 2 2 3 4 3 2 3 4 5 5 6 8 9 10 9 8 7
0 0 0 0 0 0 0 1 1 1 1 2 3 4 5 5 5 6 7 5 4 2 1 1 1 1 0 0 1 2 2 2 1 2 3 3 4 4 6 8 8 7 6 6
0 0 1 1 1 0 1 1 1 1 1 2 6 9 9 8 6 5 5 3 2 1 0 0 1 1 1 0 1 1 1 1 1 2 2 3 4 5 7 7 6 5 5 5
0 0 1 2 1 1 1 2 2 2 1 3 8 11 10 7 5 4 3 1 0 0 0 0 1 1 1 0 1 0 0 0 1 2 3 4 5 7 9 7 5 5 5 4
0 0 0 1 1 0 1 1 1 1 1 3 6 8 7 5 3 2 2 0 0 0 0 0 0 0 0 0 0 0 0 0 0 1 4 7 8 8 8 7 5 4 4 4
0 0 0 0 0 0 0 0 0 0 1 2 4 5 5 5 4 3 2 1 0 0 0 0 0 0 0 0 0 0 0 0 1 2 4 7 8 6 6 5 4 3 3 3
1 1 1 0 0 0 0 0 0 0 1 3 4 4 5 5 4 3 3 2 1 0 0 0 0 0 0 0 0 0 0 1 1 2 4 5 5 4 3 3 2 3 3 3
2 2 1 0 0 0 0 0 1 1 2 3 4 5 6 7 5 3 3 3 2 1 0 0 0 0 0 0 0 0 1 1 1 1 2 3 2 1 1 1 1 1 2 2
2 1 0 0 0 0 0 0 1 1 2 3 4 6 8 9 7 4 3 3 3 2 1 0 0 0 1 1 0 0 0 0 0 0 1 1 1 0 0 0 0 0 1 1
1 0 0 0 0 0 0 0 1 1 1 4 5 6 8 9 8 5 3 3 3 2 1 0 0 1 3 3 1 1 0 0 0 0 0 0 0 0 0 0 0 0 0 0
0 0 0 0 0 0 0 0 0 0 1 3 4 5 6 7 7 5 4 3 2 1 0 0 1 2 4 4 3 2 1 0 0 0 0 0 0 0 0 0 0 0 0 0
0 0 0 0 0 0 0 0 0 1 2 3 3 3 3 3 5 5 3 2 2 2 1 1 2 3 3 4 3 3 3 1 0 0 0 0 0 0 0 0 0 0 0 0
0 0 0 0 0 0 0 0 1 2 3 3 3 2 1 1 3 4 2 1 1 2 2 2 2 3 3 3 3 3 3 1 0 0 0 0 0 0 0 0 0 0 0 0
0 0 0 0 0 0 0 0 1 2 2 2 2 1 0 1 2 4 3 1 0 1 1 1 1 2 2 2 3 3 2 1 0 0 0 0 0 0 0 0 0 0 0 0
0 0 0 0 0 0 0 0 0 1 1 1 1 0 0 0 2 4 4 1 0 0 0 0 0 1 1 1 1 2 2 1 1 0 0 0 0 0 0 0 0 0 0 0
0 0 0 0 0 0 0 0 0 0 0 0 0 0 0 1 2 4 4 2 1 1 0 0 0 0 0 0 0 1 1 0 0 0 0 0 0 0 0 0 0 0 0 0
0 0 0 0 0 0 0 0 0 1 1 1 0 0 1 2 3 4 3 1 1 1 0 0 0 0 0 0 0 0 0 0 0 0 0 0 0 0 0 0 0 0 0 0
0 0 0 0 0 0 0 0 0 1 2 2 1 1 2 3 3 3 2 1 1 1 0 0 0 0 0 0 0 0 0 0 0 0 0 0 0 0 0 0 0 0 0 0
0 1 2 1 0 0 0 0 0 1 2 2 1 2 4 4 3 2 1 1 1 0 0 0 0 0 0 0 0 0 0 0 0 0 0 0 0 0 0 0 0 0 0 0
1 2 3 1 0 0 0 0 0 1 2 2 1 3 4 4 2 1 0 0 0 0 0 0 0 0 0 0 0 0 0 0 0 0 0 0 0 0 0 0 0 0 0 0
1 3 3 2 1 0 0 0 0 0 1 1 1 2 3 2 1 0 0 0 0 0 0 0 0 0 0 0 0 0 0 0 0 0 0 0 0 0 0 0 0 0 0 0
1 2 3 2 1 0 0 0 0 0 0 0 0 1 2 1 0 1 1 0 0 0 0 0 0 0 0 0 0 0 0 0 0 0 0 0 0 0 0 0 0 0 0 0
1 2 3 2 1 0 0 0 0 0 0 0 0 0 1 0 1 1 1 0 0 0 0 0 0 0 0 1 1 1 0 0 0 0 0 0 0 0 0 0 0 0 0 0
Wind_Speed
7 8 6 6 7 7 6 6 5 7 6 6 6 6 5 4 5 5 4 4 3 3 2 2 2 1 2 3 2 2 2 2 2 2 2 2 1 1 1 1 1 1 1 2
8 6 6 6 7 7 7 6 6 7 6 6 5 5 5 5 4 4 4 4 3 2 2 2 1 0 1 2 2 2 2 2 2 2 2 2 1 1 0 1 1 1 1 2
6 6 6 5 8 8 8 9 7 5 5 7 7 6 6 5 4 4 4 3 2 2 2 1 1 1 1 1 2 2 2 1 2 2 2 1 1 1 0 1 1 1 1 2
6 6 3 3 7 8 6 8 9 7 6 7 6 5 4 4 4 5 5 3 3 2 2 1 1 1 1 0 1 1 2 1 1 2 2 1 1 0 0 1 1 2 2 3
5 4 1 4 8 8 7 7 11 10 9 9 7 5 5 7 7 5 4 3 2 2 1 1 1 1 1 1 1 1 2 2 2 2 2 1 1 1 1 1 2 2 2 3
5 5 4 8 11 8 4 3 10 11 9 8 7 5 4 7 7 5 4 2 2 1 1 1 1 1 1 1 1 1 1 2 2 2 1 1 0 1 1 1 2 3 3 2
5 3 2 10 12 7 5 5 8 9 8 8 7 5 4 5 5 4 3 2 2 2 1 1 1 1 1 1 1 1 1 2 2 1 1 1 1 1 2 2 3 3 3 2
4 3 3 11 10 7 5 5 7 8 8 7 5 4 4 4 4 3 3 3 2 2 2 1 1 2 2 1 1 1 1 2 2 1 1 1 1 1 2 2 2 2 2 2
3 2 4 7 6 5 5 6 6 7 7 5 4 4 4 4 4 3 3 3 2 1 2 1 1 2 2 1 1 1 1 1 1 2 1 1 1 1 1 2 2 2 1 1
3 2 5 5 5 6 6 6 7 7 6 6 5 4 3 3 3 3 3 3 2 1 1 2 2 2 1 1 1 1 1 1 1 2 2 1 1 1 0 1 1 2 2 2
4 5 6 5 7 8 7 7 7 7 6 6 5 4 3 2 3 3 3 2 2 2 2 2 2 1 1 1 1 1 1 1 2 2 2 1 1 1 1 1 1 1 2 3
4 5 6 7 8 8 7 7 7 7 6 6 5 4 3 2 2 2 2 2 2 2 1 1 1 1 1 1 1 1 1 1 1 1 1 2 2 1 1 1 1 1 1 1
5 7 7 7 7 6 7 7 6 6 5 4 4 4 3 3 2 2 2 2 1 1 1 1 0 0 0 1 1 1 1 1 2 1 1 1 2 2 2 1 1 1 1 1
5 5 6 6 6 6 7 7 6 5 3 3 3 3 3 2 1 1 1 1 0 1 0 0 1 1 1 1 1 1 2 2 2 2 1 1 1 1 1 1 1 1 2 3
5 5 6 6 5 5 5 5 5 4 3 3 3 3 2 2 2 1 1 1 1 1 0 0 1 1 1 1 1 1 1 1 2 2 2 2 1 1 1 1 1 1 2 1
7 6 6 5 4 5 5 5 5 4 3 3 2 2 2 1 1 1 1 1 1 1 1 1 2 2 2 2 2 2 2 2 2 2 2 1 1 1 1 1 1 1 2 2
6 6 6 6 5 5 5 5 5 3 2 2 2 2 1 1 1 0 1 1 1 1 2 2 2 3 3 2 3 3 2 3 5 3 1 1 2 2 1 2 2 2 2 2
6 6 6 7 6 6 6 5 4 3 2 2 2 1 1 1 1 1 1 0 0 1 1 2 3 3 4 3 3 4 3 1 2 1 0 1 1 2 2 2 2 2 1 2
6 6 5 6 6 6 6 4 3 3 3 2 2 2 2 2 1 1 1 1 1 1 1 1 2 4 4 3 4 4 4 2 0 1 1 1 1 1 2 2 2 2 3 3
6 6 6 6 6 6 5 3 3 3 2 2 2 2 3 2 2 2 2 2 2 2 1 1 2 4 4 3 3 5 4 2 1 0 0 0 0 1 1 2 3 3 3 3
6 7 7 6 6 6 4 4 3 3 3 3 3 3 3 2 3 3 3 3 2 2 1 2 3 3 3 3 4 5 4 2 1 0 0 1 1 1 2 2 2 3 3 3
6 7 7 7 6 5 4 3 4 4 3 4 4 4 3 3 3 3 4 3 1 2 2 3 3 2 3 5 5 5 3 2 2 1 0 0 1 1 1 2 2 2 2 2
6 7 8 7 7 6 5 4 5 4 4 5 5 5 4 4 4 3 3 2 2 3 3 2 1 1 3 4 5 4 3 3 2 2 1 0 0 1 1 1 2 2 2 2
6 7 7 7 7 6 5 5 5 4 5 6 6 5 4 4 3 3 3 3 3 4 3 2 3 3 4 4 4 4 3 3 2 2 1 0 0 1 0 1 1 2 2 2
7 7 7 7 7 5 4 4 4 5 6 5 5 5 4 3 3 3 3 3 5 5 3 4 6 5 5 5 4 4 2 2 2 2 1 0 0 0 0 1 1 1 2 2
7 7 6 6 6 5 4 4 4 4 4 4 4 3 3 3 3 3 3 4 5 5 4 3 5 5 5 5 4 3 2 2 2 2 1 1 1 1 1 1 2 2 2 2
7 7 6 6 6 5 5 5 5 5 5 4 4 3 3 4 3 4 4 4 4 4 4 4 4 5 5 4 3 3 3 2 2 2 1 1 1 1 1 1 1 1 2 2
Wind_Direction
322 320 331 1 343 344 9 0 2 357 17 27 13 11 6 18 28 37 40 40 45 63 63 58 59 63 93 108 110 114 128 133 137 149 164 160 170 198 210 252 284 306 318 314
313 327 351 353 352 3 9 22 20 15 22 22 14 22 20 15 26 31 34 35 43 49 56 64 59 75 96 111 120 136 140 139 139 142 139 139 155 195 231 263 298 303 319 315
308 328 319 356 4 9 16 21 20 12 5 10 12 15 18 16 23 26 27 24 26 50 59 71 60 44 79 135 139 136 139 153 141 137 133 143 170 155 224 282 302 306 302 306
302 320 343 28 20 18 23 31 26 26 29 16 12 6 24 35 31 21 18 25 27 46 66 75 81 84 102 154 149 144 154 158 147 150 141 138 151 192 278 297 294 292 292 295
306 315 6 24 10 1 6 27 26 22 20 16 14 19 45 32 22 21 21 37 52 55 59 101 159 173 168 181 202 204 164 157 163 159 153 159 179 213 227 255 266 275 283 283
321 332 357 3 0 357 7 49 12 6 6 2 358 3 10 5 7 19 24 48 65 65 61 113 162 158 159 166 195 210 160 150 148 149 158 160 196 263 273 273 271 269 271 273
313 317 16 4 355 357 13 3 347 353 352 355 3 5 348 349 7 20 21 44 57 56 58 63 144 152 165 174 199 214 147 134 133 143 162 170 206 244 244 259 271 271 280 273
329 333 1 356 358 22 14 350 353 349 353 7 12 7 2 7 12 17 22 30 49 57 64 72 131 161 161 175 190 137 108 120 132 155 217 183 203 240 250 260 268 274 269 264
350 349 345 4 24 27 9 0 353 348 348 353 355 350 356 10 14 19 20 22 35 70 94 87 108 152 155 164 173 141 112 131 164 177 194 215 237 245 253 260 274 285 294 302
315 336 347 10 22 11 6 358 348 346 344 346 343 340 355 17 24 27 24 17 21 66 87 101 106 130 138 166 178 182 199 205 213 197 195 195 257 272 296 321 319 325 338 345
302 332 345 354 357 356 356 350 345 344 343 347 342 344 11 32 35 35 33 15 16 49 65 87 100 98 156 179 173 188 222 220 227 218 186 169 157 354 359 34 12 345 358 8
324 342 325 327 333 336 340 339 342 340 343 345 343 353 33 50 49 38 35 24 10 26 53 71 114 124 178 168 141 201 235 236 249 226 191 193 172 143 75 166 155 127 94 30
311 317 315 315 319 335 334 333 334 329 332 343 359 11 36 53 52 31 39 44 26 12 14 22 75 109 158 164 178 225 249 257 284 288 237 224 206 190 170 165 230 249 223 261
313 309 308 319 327 332 330 328 328 329 350 10 15 20 38 49 49 28 10 44 351 319 339 3 336 345 340 179 193 240 241 225 256 272 269 264 251 233 176 159 172 180 199 229
313 305 304 311 319 324 328 327 326 337 2 15 26 17 29 37 28 4 343 325 313 308 333 311 286 317 312 285 217 240 249 250 254 273 276 277 287 304 65 57 42 81 118 155
307 305 300 306 316 317 324 321 320 330 347 353 12 4 6 24 8 6 5 359 352 324 337 340 336 329 310 311 278 239 225 246 267 271 277 293 315 334 17 34 20 47 63 83
298 302 309 312 311 310 309 311 309 317 326 325 333 332 337 7 22 18 348 354 346 331 349 345 325 317 309 306 296 272 231 201 214 243 282 348 344 345 11 357 13 31 57 107
288 296 301 302 305 303 301 303 309 319 309 297 296 292 284 280 275 280 282 283 244 269 303 307 323 310 304 309 312 298 283 248 186 194 143 51 333 326 349 357 7 15 33 98
292 293 295 294 293 289 291 299 313 315 301 292 287 287 268 254 257 252 234 238 246 251 273 321 330 302 302 312 311 289 279 277 211 140 146 136 245 317 346 353 2 14 17 25
299 297 296 292 293 293 294 305 312 299 284 280 273 268 271 264 252 247 242 240 236 243 234 251 266 282 296 308 304 289 283 288 307 47 82 143 355 354 12 5 359 15 20 16
308 308 306 301 298 300 301 303 294 280 270 266 266 261 263 259 248 241 239 248 227 192 201 204 239 264 282 305 285 279 285 291 293 326 357 357 11 11 15 10 3 17 22 12
315 314 311 305 300 300 296 293 287 277 268 265 261 256 255 246 246 242 238 244 222 155 209 221 229 275 305 299 279 275 281 284 284 263 223 324 26 31 20 7 359 5 16 11
307 308 309 305 302 298 289 282 280 273 265 266 264 259 253 241 241 245 246 218 197 182 229 244 209 229 279 272 276 282 284 280 281 273 253 258 79 78 31 352 347 357 10 15
298 299 301 299 293 285 281 280 281 276 267 263 254 251 246 236 229 228 231 190 173 173 221 177 191 223 252 264 271 271 267 258 259 267 282 296 88 91 41 345 337 357 21 37
294 296 292 288 283 280 274 268 272 269 262 257 254 249 241 236 235 235 230 187 170 179 206 197 208 224 246 263 264 272 284 304 316 309 310 338 313 266 359 344 345 5 30 41
284 282 280 274 275 277 272 261 258 258 260 262 260 256 243 228 221 216 211 200 192 196 217 216 206 217 238 254 260 263 269 245 231 250 276 268 281 302 23 7 353 16 43 44
270 268 263 264 264 261 261 259 257 254 249 248 258 256 255 247 229 218 214 205 202 208 217 225 227 220 226 235 243 244 254 257 242 236 236 245 295 313 1 14 359 45 58 61